Location: Bacharowice
(49.9333°N, 19.5833°E)
Time: 23:41:17
(UTC+00:00)

Cosmos 1869 Rocket - Pass Details

Date: 11 May 2021
Orbit: 605 x 633 km, 82.5° (Epoch: 21 June)

Event Time Altitude Azimuth Distance (km) Brightness Sun altitude
Rises 20:30:25 0° 350° (N) 2,875 8.3 -16.4°
Reaches altitude 10° 20:32:39 10° 351° (N) 1,966 7.2 -16.5°
Maximum altitude 20:37:00 86° 78° (ENE) 615 3.4 -16.9°
Enters shadow 20:38:56 33° 168° (SSE) 1,030 4.2 -17.0°
